| time (UTC) | temp F | wind direction | speed MPH | gust MPH | rain 1hr in | rain 24hr in | rain mn in | humidity % | barometer mb |
| 20260904000114 | 64 | 260 | 17.0 | 23.0 | 0.00 | 0.04 | 0.02 | 67 | 1013.4 |
| 20260903234609 | 64 | 240 | 19.0 | 28.0 | 0.00 | 0.04 | 0.02 | 66 | 1013.6 |
| 20260903233105 | 64 | 273 | 12.0 | 25.0 | 0.00 | 0.04 | 0.02 | 66 | 1014.0 |
| 20260903231605 | 62 | 276 | 11.0 | 28.0 | 0.00 | 0.04 | 0.02 | 69 | 1014.2 |
| 20260903230105 | 61 | 265 | 19.0 | 27.0 | 0.00 | 0.04 | 0.02 | 68 | 1014.2 |
| 20260903224603 | 62 | 284 | 18.0 | 26.0 | 0.00 | 0.04 | 0.02 | 68 | 1014.3 |
| 20260903223057 | 61 | 290 | 15.0 | 23.0 | 0.00 | 0.04 | 0.02 | 70 | 1014.4 |
| 20260903221557 | 60 | 263 | 17.0 | 22.0 | 0.00 | 0.04 | 0.02 | 71 | 1014.5 |
| 20260903220053 | 60 | 265 | 15.0 | 26.0 | 0.00 | 0.04 | 0.02 | 71 | 1014.5 |
| 20260903215250 | 60 | 246 | 15.0 | 30.0 | 0.00 | 0.04 | 0.02 | 71 | 1014.5 |
| 20260903213048 | 60 | 284 | 23.0 | 31.0 | 0.00 | 0.04 | 0.02 | 70 | 1014.8 |
| 20260903211549 | 61 | 273 | 23.0 | 36.0 | 0.00 | 0.04 | 0.02 | 70 | 1014.8 |
| 20260903210045 | 61 | 284 | 25.0 | 34.0 | 0.00 | 0.04 | 0.02 | 71 | 1014.7 |
| 20260903204540 | 60 | 271 | 23.0 | 35.0 | 0.00 | 0.04 | 0.02 | 73 | 1014.7 |
| 20260903203041 | 60 | 246 | 26.0 | 34.0 | 0.00 | 0.04 | 0.02 | 73 | 1015.3 |
| 20260903201537 | 59 | 240 | 19.0 | 27.0 | 0.00 | 0.04 | 0.02 | 76 | 1015.3 |
| 20260903200032 | 59 | 265 | 12.0 | 24.0 | 0.00 | 0.04 | 0.02 | 78 | 1015.7 |
| 20260903194527 | 58 | 275 | 10.0 | 12.0 | 0.00 | 0.04 | 0.02 | 80 | 1015.8 |
| 20260903193028 | 57 | 304 | 6.0 | 9.0 | 0.00 | 0.04 | 0.02 | 80 | 1015.9 |
| 20260903191525 | 58 | 280 | 7.0 | 11.0 | 0.00 | 0.04 | 0.02 | 80 | 1016.0 |
| 20260903190024 | 58 | 261 | 4.0 | 7.0 | 0.00 | 0.04 | 0.02 | 80 | 1016.1 |
| 20260903184520 | 58 | 296 | 3.0 | 8.0 | 0.00 | 0.04 | 0.02 | 79 | 1016.2 |
| 20260903183614 | 58 | 286 | 4.0 | 10.0 | 0.00 | 0.04 | 0.02 | 79 | 1016.2 |
| 20260903183033 | 58 | 294 | 8.0 | 12.0 | 0.00 | 0.04 | 0.02 | 79 | 1016.3 |
| 20260903180012 | 58 | 313 | 3.0 | 11.0 | 0.00 | 0.04 | 0.02 | 79 | 1016.2 |
| 20260903174508 | 58 | 294 | 7.0 | 14.0 | 0.00 | 0.04 | 0.02 | 79 | 1016.2 |
| 20260903173008 | 58 | 300 | 5.0 | 15.0 | 0.00 | 0.04 | 0.02 | 79 | 1016.3 |
| 20260903171504 | 58 | 294 | 8.0 | 12.0 | 0.00 | 0.04 | 0.02 | 79 | 1016.4 |
| 20260903170004 | 58 | 288 | 5.0 | 13.0 | 0.00 | 0.04 | 0.02 | 80 | 1016.5 |
| 20260903164501 | 58 | 287 | 5.0 | 13.0 | 0.00 | 0.04 | 0.02 | 80 | 1016.6 |
| 20260903162956 | 58 | 275 | 9.0 | 14.0 | 0.00 | 0.04 | 0.02 | 80 | 1016.6 |
| 20260903161456 | 58 | 316 | 10.0 | 14.0 | 0.00 | 0.04 | 0.02 | 81 | 1016.4 |
| 20260903155952 | 58 | 286 | 5.0 | 15.0 | 0.00 | 0.04 | 0.02 | 81 | 1016.2 |
| 20260903155852 | 58 | 294 | 9.0 | 19.0 | 0.00 | 0.04 | 0.02 | 81 | 1016.2 |
| 20260903152949 | 58 | 288 | 15.0 | 21.0 | 0.00 | 0.04 | 0.02 | 81 | 1016.2 |
| 20260903151444 | 58 | 250 | 11.0 | 19.0 | 0.00 | 0.04 | 0.02 | 81 | 1016.4 |
| 20260903145939 | 59 | 305 | 11.0 | 20.0 | 0.00 | 0.04 | 0.02 | 82 | 1016.5 |
| 20260903144441 | 59 | 329 | 9.0 | 20.0 | 0.02 | 0.04 | 0.02 | 83 | 1016.5 |
| 20260903142937 | 59 | 252 | 11.0 | 19.0 | 0.02 | 0.04 | 0.02 | 83 | 1016.8 |
| 20260903141437 | 59 | 282 | 11.0 | 15.0 | 0.02 | 0.04 | 0.02 | 84 | 1017.0 |
| 20260903140620 | 59 | 281 | 8.0 | 17.0 | 0.02 | 0.04 | 0.02 | 84 | 1017.1 |
| 20260903134433 | 59 | 271 | 10.0 | 16.0 | 0.00 | 0.02 | 0.00 | 84 | 1017.1 |
| 20260903132928 | 59 | 265 | 8.0 | 16.0 | 0.00 | 0.02 | 0.00 | 84 | 1017.2 |
| 20260903131425 | 59 | 269 | 13.0 | 20.0 | 0.00 | 0.02 | 0.00 | 85 | 1017.2 |
| 20260903125925 | 59 | 267 | 10.0 | 18.0 | 0.00 | 0.02 | 0.00 | 85 | 1017.2 |
| 20260903125119 | 59 | 273 | 11.0 | 18.0 | 0.00 | 0.02 | 0.00 | 85 | 1017.1 |
| 20260903122917 | 58 | 304 | 8.0 | 13.0 | 0.01 | 0.02 | 0.00 | 86 | 1017.0 |
| 20260903121416 | 58 | 302 | 9.0 | 13.0 | 0.01 | 0.02 | 0.00 | 86 | 1017.0 |
| 20260903115912 | 58 | 310 | 6.0 | 12.0 | 0.01 | 0.02 | 0.02 | 86 | 1017.1 |
| 20260903114408 | 58 | 315 | 6.0 | 12.0 | 0.02 | 0.02 | 0.02 | 86 | 1017.3 |
| 20260903112903 | 58 | 290 | 7.0 | 11.0 | 0.02 | 0.02 | 0.02 | 86 | 1017.5 |
| 20260903111359 | 58 | 296 | 6.0 | 13.0 | 0.02 | 0.02 | 0.02 | 85 | 1017.7 |
| 20260903105859 | 58 | 295 | 5.0 | 11.0 | 0.02 | 0.02 | 0.02 | 85 | 1017.8 |
| 20260903104357 | 58 | 320 | 5.0 | 10.0 | 0.01 | 0.01 | 0.01 | 84 | 1017.8 |
| 20260903103544 | 58 | 294 | 2.0 | 6.0 | 0.00 | 0.00 | 0.00 | 84 | 1018.0 |
| 20260903101352 | 57 | 335 | 2.0 | 6.0 | 0.00 | 0.00 | 0.00 | 83 | 1018.0 |
| 20260903095847 | 58 | 317 | 4.0 | 9.0 | 0.00 | 0.00 | 0.00 | 83 | 1018.1 |
| 20260903094342 | 57 | 17 | 1.0 | 6.0 | 0.00 | 0.00 | 0.00 | 82 | 1018.2 |
| 20260903093546 | 57 | 334 | 3.0 | 6.0 | 0.00 | 0.00 | 0.00 | 82 | 1018.3 |
| 20260903091339 | 56 | 323 | 3.0 | 5.0 | 0.00 | 0.00 | 0.00 | 82 | 1018.2 |
| 20260903085835 | 56 | 303 | 0.0 | 1.0 | 0.00 | 0.00 | 0.00 | 81 | 1018.3 |
| 20260903085021 | 56 | 303 | 0.0 | 2.0 | 0.00 | 0.00 | 0.00 | 81 | 1018.1 |
| 20260903082826 | 56 | 303 | 1.0 | 3.0 | 0.00 | 0.00 | 0.00 | 81 | 1018.2 |
| 20260903081327 | 56 | 294 | 2.0 | 3.0 | 0.00 | 0.00 | 0.00 | 81 | 1018.2 |
| 20260903075823 | 56 | 266 | 1.0 | 4.0 | 0.00 | 0.00 | 0.00 | 80 | 1018.3 |
| 20260903074318 | 56 | 263 | 3.0 | 7.0 | 0.00 | 0.00 | 0.00 | 78 | 1018.2 |
| 20260903072818 | 56 | 272 | 4.0 | 8.0 | 0.00 | 0.00 | 0.00 | 76 | 1018.3 |
| 20260903071313 | 57 | 271 | 5.0 | 13.0 | 0.00 | 0.00 | 0.00 | 74 | 1018.2 |
| 20260903070502 | 58 | 0 | 6.0 | 8.0 | 0.00 | 0.00 | 0.00 | 73 | 1018.0 |
| 20260903064310 | 58 | 315 | 4.0 | 8.0 | 0.00 | 0.00 | 0.00 | 72 | 1017.8 |
| 20260903062806 | 58 | 289 | 2.0 | 4.0 | 0.00 | 0.00 | 0.00 | 72 | 1017.5 |
| 20260903061306 | 58 | 253 | 1.0 | 8.0 | 0.00 | 0.00 | 0.00 | 71 | 1017.4 |
| 20260903055802 | 59 | 266 | 3.0 | 15.0 | 0.00 | 0.00 | 0.00 | 70 | 1017.6 |
| 20260903054258 | 60 | 254 | 9.0 | 18.0 | 0.00 | 0.00 | 0.00 | 67 | 1017.5 |
| 20260903052759 | 61 | 267 | 7.0 | 10.0 | 0.00 | 0.00 | 0.00 | 67 | 1017.5 |
| 20260903051254 | 61 | 276 | 4.0 | 13.0 | 0.00 | 0.00 | 0.00 | 64 | 1017.4 |
| 20260903045749 | 62 | 272 | 9.0 | 15.0 | 0.00 | 0.00 | 0.00 | 59 | 1017.5 |
| 20260903044250 | 62 | 273 | 11.0 | 16.0 | 0.00 | 0.00 | 0.00 | 60 | 1017.5 |
| 20260903042748 | 62 | 254 | 12.0 | 19.0 | 0.00 | 0.00 | 0.00 | 62 | 1017.7 |
| 20260903041246 | 62 | 275 | 9.0 | 15.0 | 0.00 | 0.00 | 0.00 | 65 | 1017.7 |
| 20260903035744 | 62 | 272 | 9.0 | 16.0 | 0.00 | 0.00 | 0.00 | 65 | 1017.7 |
| 20260903034237 | 63 | 262 | 10.0 | 18.0 | 0.00 | 0.00 | 0.00 | 64 | 1017.7 |
| 20260903032738 | 63 | 298 | 11.0 | 18.0 | 0.00 | 0.00 | 0.00 | 63 | 1017.7 |
| 20260903031235 | 65 | 254 | 11.0 | 23.0 | 0.00 | 0.00 | 0.00 | 57 | 1017.7 |
| 20260903025735 | 65 | 269 | 15.0 | 19.0 | 0.00 | 0.00 | 0.00 | 56 | 1017.7 |
| 20260903024230 | 65 | 255 | 15.0 | 22.0 | 0.00 | 0.00 | 0.00 | 57 | 1017.9 |
| 20260903023416 | 67 | 233 | 11.0 | 18.0 | 0.00 | 0.00 | 0.00 | 53 | 1017.8 |
| 20260903021221 | 66 | 270 | 11.0 | 15.0 | 0.00 | 0.00 | 0.00 | 51 | 1017.8 |
| 20260903015716 | 65 | 237 | 11.0 | 18.0 | 0.00 | 0.00 | 0.00 | 56 | 1018.0 |
| 20260903014219 | 64 | 243 | 10.0 | 16.0 | 0.00 | 0.00 | 0.00 | 56 | 1018.3 |
| 20260903012713 | 64 | 247 | 8.0 | 20.0 | 0.00 | 0.00 | 0.00 | 58 | 1018.6 |
| 20260903011213 | 65 | 273 | 15.0 | 18.0 | 0.00 | 0.00 | 0.00 | 57 | 1018.6 |
| 20260903005709 | 64 | 281 | 11.0 | 19.0 | 0.00 | 0.00 | 0.00 | 55 | 1018.9 |
| 20260903004207 | 64 | 284 | 11.0 | 16.0 | 0.00 | 0.00 | 0.00 | 62 | 1019.1 |
| 20260903002706 | 63 | 275 | 9.0 | 16.0 | 0.00 | 0.00 | 0.00 | 65 | 1019.2 |
| 20260903001201 | 63 | 271 | 11.0 | 16.0 | 0.00 | 0.00 | 0.00 | 64 | 1019.5 |